User: anonymous   Login
Location: Fort Wayne
(41.1310°N, 85.1290°W)
Time: 22:28:29
(UTC-04:00)
Language:

COSMOS 2428 - Orbit

View from above orbital plane
View from above orbital plane
View from above satellite
View from above satellite

Ground track
Ground track

The orbit data is extracted from the following two-line orbital elements,

1 31792U 07029A   17146.52986138 +.00000112 +00000-0 +87024-4 0  9990
2 31792 070.9145 097.5755 0010214 292.4126 067.5912 14.12264443511011
Epoch (UTC): 26 May 2017 12:43:00
Eccentricity: 0.0010214
inclination: 70.9145°
perigee height: 844 km
apogee height: 859 km
right ascension of ascending node: 97.5755°
argument of perigee: 292.4126°
revolutions per day: 14.12264443
mean anomaly at epoch: 67.5912°
orbit number at epoch: 51101

The dashed part of the orbit path shows where the satellite is in the earth's shadow,  

DLR